Year,Month,Day,Hour,Minute,Value (Times are PST for temperature in C)
2016,09,27,00,00,16.30
2016,09,27,00,01,16.20
2016,09,27,00,02,16.20
2016,09,27,00,03,16.20
2016,09,27,00,04,16.20
2016,09,27,00,05,16.20
2016,09,27,00,06,16.10
2016,09,27,00,07,16.10
2016,09,27,00,08,16.10
2016,09,27,00,09,16.10
2016,09,27,00,10,16.20
2016,09,27,00,11,16.20
2016,09,27,00,12,16.20
2016,09,27,00,13,16.10
2016,09,27,00,14,16.10
2016,09,27,00,15,16.10
2016,09,27,00,16,16.10
2016,09,27,00,17,16.10
2016,09,27,00,18,16.00
2016,09,27,00,19,16.00
2016,09,27,00,20,15.90
2016,09,27,00,21,15.90
2016,09,27,00,22,15.90
2016,09,27,00,23,15.90
2016,09,27,00,24,15.90
2016,09,27,00,25,16.00
2016,09,27,00,26,16.00
2016,09,27,00,27,16.00
2016,09,27,00,28,16.10
2016,09,27,00,29,16.10
2016,09,27,00,30,16.10
2016,09,27,00,31,16.20
2016,09,27,00,32,16.20
2016,09,27,00,33,16.20
2016,09,27,00,34,16.20
2016,09,27,00,35,16.20
2016,09,27,00,36,16.20
2016,09,27,00,37,16.20
2016,09,27,00,38,16.20
2016,09,27,00,39,16.20
2016,09,27,00,40,16.20
2016,09,27,00,41,16.20
2016,09,27,00,42,16.20
2016,09,27,00,43,16.20
2016,09,27,00,44,16.10
2016,09,27,00,45,16.10
2016,09,27,00,46,16.00
2016,09,27,00,47,15.90
2016,09,27,00,48,15.80
2016,09,27,00,49,15.70
2016,09,27,00,50,15.60
2016,09,27,00,51,15.50
2016,09,27,00,52,15.50
2016,09,27,00,53,15.40
2016,09,27,00,54,15.30
2016,09,27,00,55,15.30
2016,09,27,00,56,15.30
2016,09,27,00,57,15.20
2016,09,27,00,58,15.20
2016,09,27,00,59,15.20
2016,09,27,01,00,15.10
2016,09,27,01,01,15.10
2016,09,27,01,02,15.10
2016,09,27,01,03,15.10
2016,09,27,01,04,15.10
2016,09,27,01,05,15.10
2016,09,27,01,06,15.10
2016,09,27,01,07,15.10
2016,09,27,01,08,15.00
2016,09,27,01,09,15.00
2016,09,27,01,10,15.00
2016,09,27,01,11,15.00
2016,09,27,01,12,15.00
2016,09,27,01,13,15.00
2016,09,27,01,14,15.00
2016,09,27,01,15,15.00
2016,09,27,01,16,15.00
2016,09,27,01,17,14.90
2016,09,27,01,18,15.00
2016,09,27,01,19,15.00
2016,09,27,01,20,15.00
2016,09,27,01,21,15.00
2016,09,27,01,22,15.00
2016,09,27,01,23,15.00
2016,09,27,01,24,15.00
2016,09,27,01,25,15.00
2016,09,27,01,26,15.10
2016,09,27,01,27,15.10
2016,09,27,01,28,15.10
2016,09,27,01,29,15.10
2016,09,27,01,30,15.20
2016,09,27,01,31,15.30
2016,09,27,01,32,15.30
2016,09,27,01,33,15.30
2016,09,27,01,34,15.40
2016,09,27,01,35,15.40
2016,09,27,01,36,15.40
2016,09,27,01,37,15.40
2016,09,27,01,38,15.30
2016,09,27,01,39,15.30
2016,09,27,01,40,15.30
2016,09,27,01,41,15.30
2016,09,27,01,42,15.20
2016,09,27,01,43,15.20
2016,09,27,01,44,15.20
2016,09,27,01,45,15.20
2016,09,27,01,46,15.10
2016,09,27,01,47,15.10
2016,09,27,01,48,15.10
2016,09,27,01,49,15.10
2016,09,27,01,50,15.00
2016,09,27,01,51,15.00
2016,09,27,01,52,15.00
2016,09,27,01,53,15.00
2016,09,27,01,54,15.10
2016,09,27,01,55,15.10
2016,09,27,01,56,15.10
2016,09,27,01,57,15.10
2016,09,27,01,58,15.10
2016,09,27,01,59,15.10
2016,09,27,02,00,15.10
2016,09,27,02,01,15.20
2016,09,27,02,02,15.20
2016,09,27,02,03,15.20
2016,09,27,02,04,15.20
2016,09,27,02,05,15.20
2016,09,27,02,06,15.20
2016,09,27,02,07,15.10
2016,09,27,02,08,15.10
2016,09,27,02,09,15.10
2016,09,27,02,10,15.10
2016,09,27,02,11,15.10
2016,09,27,02,12,15.10
2016,09,27,02,13,15.10
2016,09,27,02,14,15.10
2016,09,27,02,15,15.00
2016,09,27,02,16,15.00
2016,09,27,02,17,15.00
2016,09,27,02,18,14.90
2016,09,27,02,19,14.90
2016,09,27,02,20,14.90
2016,09,27,02,21,14.90
2016,09,27,02,22,14.80
2016,09,27,02,23,14.80
2016,09,27,02,24,14.80
2016,09,27,02,25,14.80
2016,09,27,02,26,14.80
2016,09,27,02,27,14.70
2016,09,27,02,28,14.70
2016,09,27,02,29,14.70
2016,09,27,02,30,14.70
2016,09,27,02,31,14.70
2016,09,27,02,32,14.60
2016,09,27,02,33,14.60
2016,09,27,02,34,14.60
2016,09,27,02,35,14.60
2016,09,27,02,36,14.50
2016,09,27,02,37,14.50
2016,09,27,02,38,14.50
2016,09,27,02,39,14.50
2016,09,27,02,40,14.40
2016,09,27,02,41,14.40
2016,09,27,02,42,14.40
2016,09,27,02,43,14.40
2016,09,27,02,44,14.40
2016,09,27,02,45,14.40
2016,09,27,02,46,14.40
2016,09,27,02,47,14.40
2016,09,27,02,48,14.40
2016,09,27,02,49,14.40
2016,09,27,02,50,14.40
2016,09,27,02,51,14.40
2016,09,27,02,52,14.30
2016,09,27,02,53,14.30
2016,09,27,02,54,14.30
2016,09,27,02,55,14.30
2016,09,27,02,56,14.30
2016,09,27,02,57,14.30
2016,09,27,02,58,14.30
2016,09,27,02,59,14.30
2016,09,27,03,00,14.20
2016,09,27,03,01,14.20
2016,09,27,03,02,14.20
2016,09,27,03,03,14.20
2016,09,27,03,04,14.20
2016,09,27,03,05,14.20
2016,09,27,03,06,14.20
2016,09,27,03,07,14.20
2016,09,27,03,08,14.20
2016,09,27,03,09,14.20
2016,09,27,03,10,14.20
2016,09,27,03,11,14.20
2016,09,27,03,12,14.20
2016,09,27,03,13,14.20
2016,09,27,03,14,14.20
2016,09,27,03,15,14.20
2016,09,27,03,16,14.20
2016,09,27,03,17,14.20
2016,09,27,03,18,14.20
2016,09,27,03,19,14.20
2016,09,27,03,20,14.10
2016,09,27,03,21,14.10
2016,09,27,03,22,14.10
2016,09,27,03,23,14.10
2016,09,27,03,24,14.10
2016,09,27,03,25,14.10
2016,09,27,03,26,14.10
2016,09,27,03,27,14.10
2016,09,27,03,28,14.10
2016,09,27,03,29,14.10
2016,09,27,03,30,14.10
2016,09,27,03,31,14.10
2016,09,27,03,32,14.10
2016,09,27,03,33,14.10
2016,09,27,03,34,14.10
2016,09,27,03,35,14.00
2016,09,27,03,36,14.00
2016,09,27,03,37,14.00
2016,09,27,03,38,14.00
2016,09,27,03,39,14.00
2016,09,27,03,40,14.00
2016,09,27,03,41,14.00
2016,09,27,03,42,14.00
2016,09,27,03,43,14.00
2016,09,27,03,44,14.00
2016,09,27,03,45,14.00
2016,09,27,03,46,14.00
2016,09,27,03,47,14.00
2016,09,27,03,48,14.00
2016,09,27,03,49,14.00
2016,09,27,03,50,14.00
2016,09,27,03,51,14.00
2016,09,27,03,52,14.00
2016,09,27,03,53,14.00
2016,09,27,03,54,13.90
2016,09,27,03,55,13.90
2016,09,27,03,56,13.90
2016,09,27,03,57,13.90
2016,09,27,03,58,13.90
2016,09,27,03,59,13.80
2016,09,27,04,00,13.80
2016,09,27,04,01,13.80
2016,09,27,04,02,13.80
2016,09,27,04,03,13.80
2016,09,27,04,04,13.70
2016,09,27,04,05,13.70
2016,09,27,04,06,13.70
2016,09,27,04,07,13.70
2016,09,27,04,08,13.70
2016,09,27,04,09,13.70
2016,09,27,04,10,13.70
2016,09,27,04,11,13.70
2016,09,27,04,12,13.70
2016,09,27,04,13,13.70
2016,09,27,04,14,13.60
2016,09,27,04,15,13.60
2016,09,27,04,16,13.60
2016,09,27,04,17,13.60
2016,09,27,04,18,13.60
2016,09,27,04,19,13.60
2016,09,27,04,20,13.60
2016,09,27,04,21,13.60
2016,09,27,04,22,13.60
2016,09,27,04,23,13.60
2016,09,27,04,24,13.60
2016,09,27,04,25,13.60
2016,09,27,04,26,13.60
2016,09,27,04,27,13.50
2016,09,27,04,28,13.50
2016,09,27,04,29,13.50
2016,09,27,04,30,13.50
2016,09,27,04,31,13.50
2016,09,27,04,32,13.50
2016,09,27,04,33,13.50
2016,09,27,04,34,13.50
2016,09,27,04,35,13.50
2016,09,27,04,36,13.50
2016,09,27,04,37,13.50
2016,09,27,04,38,13.50
2016,09,27,04,39,13.50
2016,09,27,04,40,13.50
2016,09,27,04,41,13.60
2016,09,27,04,42,13.60
2016,09,27,04,43,13.60
2016,09,27,04,44,13.60
2016,09,27,04,45,13.60
2016,09,27,04,46,13.60
2016,09,27,04,47,13.60
2016,09,27,04,48,13.60
2016,09,27,04,49,13.60
2016,09,27,04,50,13.60
2016,09,27,04,51,13.60
2016,09,27,04,52,13.60
2016,09,27,04,53,13.60
2016,09,27,04,54,13.60
2016,09,27,04,55,13.60
2016,09,27,04,56,13.60
2016,09,27,04,57,13.60
2016,09,27,04,58,13.60
2016,09,27,04,59,13.60
2016,09,27,05,00,13.60
2016,09,27,05,01,13.50
2016,09,27,05,02,13.50
2016,09,27,05,03,13.50
2016,09,27,05,04,13.50
2016,09,27,05,05,13.50
2016,09,27,05,06,13.50
2016,09,27,05,07,13.40
2016,09,27,05,08,13.40
2016,09,27,05,09,13.40
2016,09,27,05,10,13.40
2016,09,27,05,11,13.40
2016,09,27,05,12,13.40
2016,09,27,05,13,13.40
2016,09,27,05,14,13.40
2016,09,27,05,15,13.40
2016,09,27,05,16,13.40
2016,09,27,05,17,13.40
2016,09,27,05,18,13.40
2016,09,27,05,19,13.40
2016,09,27,05,20,13.30
2016,09,27,05,21,13.30
2016,09,27,05,22,13.30
2016,09,27,05,23,13.30
2016,09,27,05,24,13.30
2016,09,27,05,25,13.30
2016,09,27,05,26,13.20
2016,09,27,05,27,13.20
2016,09,27,05,28,13.20
2016,09,27,05,29,13.20
2016,09,27,05,30,13.20
2016,09,27,05,31,13.10
2016,09,27,05,32,13.10
2016,09,27,05,33,13.10
2016,09,27,05,34,13.10
2016,09,27,05,35,13.10
2016,09,27,05,36,13.10
2016,09,27,05,37,13.10
2016,09,27,05,38,13.10
2016,09,27,05,39,13.10
2016,09,27,05,40,13.20
2016,09,27,05,41,13.20
2016,09,27,05,42,13.20
2016,09,27,05,43,13.20
2016,09,27,05,44,13.20
2016,09,27,05,45,13.20
2016,09,27,05,46,13.20
2016,09,27,05,47,13.20
2016,09,27,05,48,13.20
2016,09,27,05,49,13.20
2016,09,27,05,50,13.10
2016,09,27,05,51,13.10
2016,09,27,05,52,13.10
2016,09,27,05,53,13.10
2016,09,27,05,54,13.10
2016,09,27,05,55,13.10
2016,09,27,05,56,13.00
2016,09,27,05,57,13.00
2016,09,27,05,58,13.00
2016,09,27,05,59,13.00
2016,09,27,06,00,13.00
2016,09,27,06,01,13.00
2016,09,27,06,02,12.90
2016,09,27,06,03,12.90
2016,09,27,06,04,12.90
2016,09,27,06,05,12.90
2016,09,27,06,06,12.90
2016,09,27,06,07,12.90
2016,09,27,06,08,13.00
2016,09,27,06,09,13.00
2016,09,27,06,10,13.00
2016,09,27,06,11,13.00
2016,09,27,06,12,12.90
2016,09,27,06,13,12.90
2016,09,27,06,14,12.90
2016,09,27,06,15,12.90
2016,09,27,06,16,12.90
2016,09,27,06,17,12.90
2016,09,27,06,18,12.90
2016,09,27,06,19,13.00
2016,09,27,06,20,13.00
2016,09,27,06,21,13.00
2016,09,27,06,22,13.00
2016,09,27,06,23,13.00
2016,09,27,06,24,13.00
2016,09,27,06,25,13.00
2016,09,27,06,26,12.90
2016,09,27,06,27,12.90
2016,09,27,06,28,13.00
2016,09,27,06,29,12.90
2016,09,27,06,30,12.90
2016,09,27,06,31,12.90
2016,09,27,06,32,12.90
2016,09,27,06,33,12.90
2016,09,27,06,34,12.90
2016,09,27,06,35,12.90
2016,09,27,06,36,12.90
2016,09,27,06,37,12.90
2016,09,27,06,38,12.90
2016,09,27,06,39,13.00
2016,09,27,06,40,12.90
2016,09,27,06,41,13.00
2016,09,27,06,42,12.90
2016,09,27,06,43,12.90
2016,09,27,06,44,12.90
2016,09,27,06,45,12.90
2016,09,27,06,46,12.90
2016,09,27,06,47,12.90
2016,09,27,06,48,12.90
2016,09,27,06,49,12.90
2016,09,27,06,50,12.90
2016,09,27,06,51,12.90
2016,09,27,06,52,12.90
2016,09,27,06,53,12.90
2016,09,27,06,54,12.90
2016,09,27,06,55,12.90
2016,09,27,06,56,12.90
2016,09,27,06,57,12.90
2016,09,27,06,58,12.90
2016,09,27,06,59,12.90
2016,09,27,07,00,12.90
2016,09,27,07,01,12.90
2016,09,27,07,02,12.80
2016,09,27,07,03,12.80
2016,09,27,07,04,12.80
2016,09,27,07,05,12.80
2016,09,27,07,06,12.80
2016,09,27,07,07,12.80
2016,09,27,07,08,12.80
2016,09,27,07,09,12.80
2016,09,27,07,10,12.80
2016,09,27,07,11,12.80
2016,09,27,07,12,12.80
2016,09,27,07,13,12.80
2016,09,27,07,14,12.70
2016,09,27,07,15,12.70
2016,09,27,07,16,12.70
2016,09,27,07,17,12.70
2016,09,27,07,18,12.70
2016,09,27,07,19,12.70
2016,09,27,07,20,12.70
2016,09,27,07,21,12.60
2016,09,27,07,22,12.60
2016,09,27,07,23,12.60
2016,09,27,07,24,12.60
2016,09,27,07,25,12.60
2016,09,27,07,26,12.50
2016,09,27,07,27,12.50
2016,09,27,07,28,12.50
2016,09,27,07,29,12.50
2016,09,27,07,30,12.40
2016,09,27,07,31,12.40
2016,09,27,07,32,12.40
2016,09,27,07,33,12.40
2016,09,27,07,34,12.40
2016,09,27,07,35,12.40
2016,09,27,07,36,12.40
2016,09,27,07,37,12.40
2016,09,27,07,38,12.40
2016,09,27,07,39,12.40
2016,09,27,07,40,12.40
2016,09,27,07,41,12.40
2016,09,27,07,42,12.40
2016,09,27,07,43,12.40
2016,09,27,07,44,12.50
2016,09,27,07,45,12.50
2016,09,27,07,46,12.50
2016,09,27,07,47,12.50
2016,09,27,07,48,12.60
2016,09,27,07,49,12.60
2016,09,27,07,50,12.60
2016,09,27,07,51,12.60
2016,09,27,07,52,12.70
2016,09,27,07,53,12.70
2016,09,27,07,54,12.70
2016,09,27,07,55,12.70
2016,09,27,07,56,12.70
2016,09,27,07,57,12.70
2016,09,27,07,58,12.70
2016,09,27,07,59,12.70
2016,09,27,08,00,12.70
2016,09,27,08,01,12.70
2016,09,27,08,02,12.70
2016,09,27,08,03,12.70
2016,09,27,08,04,12.70
2016,09,27,08,05,12.70
2016,09,27,08,06,12.70
2016,09,27,08,07,12.70
2016,09,27,08,08,12.70
2016,09,27,08,09,12.70
2016,09,27,08,10,12.70
2016,09,27,08,11,12.70
2016,09,27,08,12,12.70
2016,09,27,08,13,12.70
2016,09,27,08,14,12.70
2016,09,27,08,15,12.70
2016,09,27,08,16,12.70
2016,09,27,08,17,12.70
2016,09,27,08,18,12.70
2016,09,27,08,19,12.70
2016,09,27,08,20,12.70
2016,09,27,08,21,12.70
2016,09,27,08,22,12.70
2016,09,27,08,23,12.70
2016,09,27,08,24,12.70
2016,09,27,08,25,12.70
2016,09,27,08,26,12.70
2016,09,27,08,27,12.70
2016,09,27,08,28,12.70
2016,09,27,08,29,12.80
2016,09,27,08,30,12.80
2016,09,27,08,31,12.70
2016,09,27,08,32,12.70
2016,09,27,08,33,12.70
2016,09,27,08,34,12.70
2016,09,27,08,35,12.70
2016,09,27,08,36,12.70
2016,09,27,08,37,12.70
2016,09,27,08,38,12.70
2016,09,27,08,39,12.70
2016,09,27,08,40,12.80
2016,09,27,08,41,12.80
2016,09,27,08,42,12.80
2016,09,27,08,43,12.80
2016,09,27,08,44,12.80
2016,09,27,08,45,12.80
2016,09,27,08,46,12.80
2016,09,27,08,47,12.80
2016,09,27,08,48,12.80
2016,09,27,08,49,12.80
2016,09,27,08,50,12.80
2016,09,27,08,51,12.70
2016,09,27,08,52,12.70
2016,09,27,08,53,12.70
2016,09,27,08,54,12.70
2016,09,27,08,55,12.70
2016,09,27,08,56,12.70
2016,09,27,08,57,12.60
2016,09,27,08,58,12.60
2016,09,27,08,59,12.60
2016,09,27,09,00,12.60
2016,09,27,09,01,12.60
2016,09,27,09,02,12.50
2016,09,27,09,03,12.50
2016,09,27,09,04,12.50
2016,09,27,09,05,12.50
2016,09,27,09,06,12.50
2016,09,27,09,07,12.40
2016,09,27,09,08,12.40
2016,09,27,09,09,12.40
2016,09,27,09,10,12.40
2016,09,27,09,11,12.40
2016,09,27,09,12,12.40
2016,09,27,09,13,12.40
2016,09,27,09,14,12.40
2016,09,27,09,15,12.30
2016,09,27,09,16,12.30
2016,09,27,09,17,12.30
2016,09,27,09,18,12.30
2016,09,27,09,19,12.30
2016,09,27,09,20,12.30
2016,09,27,09,21,12.30
2016,09,27,09,22,12.40
2016,09,27,09,23,12.40
2016,09,27,09,24,12.40
2016,09,27,09,25,12.40
2016,09,27,09,26,12.50
2016,09,27,09,27,12.60
2016,09,27,09,28,12.60
2016,09,27,09,29,12.70
2016,09,27,09,30,12.80
2016,09,27,09,31,12.80
2016,09,27,09,32,12.90
2016,09,27,09,33,13.00
2016,09,27,09,34,13.00
2016,09,27,09,35,13.10
2016,09,27,09,36,13.20
2016,09,27,09,37,13.20
2016,09,27,09,38,13.30
2016,09,27,09,39,13.30
2016,09,27,09,40,13.30
2016,09,27,09,41,13.30
2016,09,27,09,42,13.40
2016,09,27,09,43,13.40
2016,09,27,09,44,13.40
2016,09,27,09,45,13.50
2016,09,27,09,46,13.60
2016,09,27,09,47,13.60
2016,09,27,09,48,13.60
2016,09,27,09,49,13.60
2016,09,27,09,50,13.70
2016,09,27,09,51,13.70
2016,09,27,09,52,13.70
2016,09,27,09,53,13.70
2016,09,27,09,54,13.70
2016,09,27,09,55,13.70
2016,09,27,09,56,13.70
2016,09,27,09,57,13.80
2016,09,27,09,58,13.80
2016,09,27,09,59,13.80
2016,09,27,10,00,13.80
2016,09,27,10,01,13.90
2016,09,27,10,02,13.90
2016,09,27,10,03,13.90
2016,09,27,10,04,13.90
2016,09,27,10,05,13.90
2016,09,27,10,06,13.90
2016,09,27,10,07,13.90
2016,09,27,10,08,13.90
2016,09,27,10,09,14.00
2016,09,27,10,10,14.00
2016,09,27,10,11,14.00
2016,09,27,10,12,14.00
2016,09,27,10,13,14.10
2016,09,27,10,14,14.10
2016,09,27,10,15,14.20
2016,09,27,10,16,14.20
2016,09,27,10,17,14.20
2016,09,27,10,18,14.20
2016,09,27,10,19,14.20
2016,09,27,10,20,14.20
2016,09,27,10,21,14.30
2016,09,27,10,22,14.30
2016,09,27,10,23,14.40
2016,09,27,10,24,14.40
2016,09,27,10,25,14.50
2016,09,27,10,26,14.60
2016,09,27,10,27,14.60
2016,09,27,10,28,14.60
2016,09,27,10,29,14.70
2016,09,27,10,30,14.70
2016,09,27,10,31,14.70
2016,09,27,10,32,14.70
2016,09,27,10,33,14.70
2016,09,27,10,34,14.70
2016,09,27,10,35,14.80
2016,09,27,10,36,14.80
2016,09,27,10,37,14.80
2016,09,27,10,38,14.90
2016,09,27,10,39,14.90
2016,09,27,10,40,15.00
2016,09,27,10,41,15.10
2016,09,27,10,42,15.10
2016,09,27,10,43,15.20
2016,09,27,10,44,15.20
2016,09,27,10,45,15.30
2016,09,27,10,46,15.30
2016,09,27,10,47,15.40
2016,09,27,10,48,15.50
2016,09,27,10,49,15.60
2016,09,27,10,50,15.70
2016,09,27,10,51,15.70
2016,09,27,10,52,15.80
2016,09,27,10,53,15.80
2016,09,27,10,54,15.90
2016,09,27,10,55,16.00
2016,09,27,10,56,16.00
2016,09,27,10,57,16.00
2016,09,27,10,58,15.90
2016,09,27,10,59,15.80
2016,09,27,11,00,15.70
2016,09,27,11,01,15.70
2016,09,27,11,02,15.70
2016,09,27,11,03,15.60
2016,09,27,11,04,15.60
2016,09,27,11,05,15.60
2016,09,27,11,06,15.60
2016,09,27,11,07,15.60
2016,09,27,11,08,15.60
2016,09,27,11,09,15.60
2016,09,27,11,10,15.60
2016,09,27,11,11,15.60
2016,09,27,11,12,15.70
2016,09,27,11,13,15.70
2016,09,27,11,14,15.70
2016,09,27,11,15,15.70
2016,09,27,11,16,15.70
2016,09,27,11,17,15.70
2016,09,27,11,18,15.70
2016,09,27,11,19,15.80
2016,09,27,11,20,15.80
2016,09,27,11,21,15.90
2016,09,27,11,22,15.90
2016,09,27,11,23,16.00
2016,09,27,11,24,16.10
2016,09,27,11,25,16.20
2016,09,27,11,26,16.20
2016,09,27,11,27,16.30
2016,09,27,11,28,16.40
2016,09,27,11,29,16.50
2016,09,27,11,30,16.60
2016,09,27,11,31,16.60
2016,09,27,11,32,16.70
2016,09,27,11,33,16.70
2016,09,27,11,34,16.80
2016,09,27,11,35,16.80
2016,09,27,11,36,16.90
2016,09,27,11,37,16.90
2016,09,27,11,38,17.00
2016,09,27,11,39,17.00
2016,09,27,11,40,17.10
2016,09,27,11,41,17.10
2016,09,27,11,42,17.10
2016,09,27,11,43,17.10
2016,09,27,11,44,17.10
2016,09,27,11,45,17.20
2016,09,27,11,46,17.20
2016,09,27,11,47,17.20
2016,09,27,11,48,17.20
2016,09,27,11,49,17.20
2016,09,27,11,50,17.20
2016,09,27,11,51,17.10
2016,09,27,11,52,17.10
2016,09,27,11,53,17.10
2016,09,27,11,54,17.10
2016,09,27,11,55,17.10
2016,09,27,11,56,17.10
2016,09,27,11,57,17.10
2016,09,27,11,58,17.10
2016,09,27,11,59,17.10
2016,09,27,12,00,17.10
2016,09,27,12,01,17.10
2016,09,27,12,02,17.20
2016,09,27,12,03,17.20
2016,09,27,12,04,17.20
2016,09,27,12,05,17.10
2016,09,27,12,06,17.10
2016,09,27,12,07,17.10
2016,09,27,12,08,17.10
2016,09,27,12,09,17.10
2016,09,27,12,10,17.10
2016,09,27,12,11,17.10
2016,09,27,12,12,17.10
2016,09,27,12,13,17.10
2016,09,27,12,14,17.10
2016,09,27,12,15,17.20
2016,09,27,12,16,17.20
2016,09,27,12,17,17.30
2016,09,27,12,18,17.30
2016,09,27,12,19,17.30
2016,09,27,12,20,17.30
2016,09,27,12,21,17.30
2016,09,27,12,22,17.20
2016,09,27,12,23,17.20
2016,09,27,12,24,17.20
2016,09,27,12,25,17.20
2016,09,27,12,26,17.10
2016,09,27,12,27,17.10
2016,09,27,12,28,17.10
2016,09,27,12,29,17.00
2016,09,27,12,30,17.00
2016,09,27,12,31,16.90
2016,09,27,12,32,16.90
2016,09,27,12,33,16.90
2016,09,27,12,34,17.00
2016,09,27,12,35,17.00
2016,09,27,12,36,17.10
2016,09,27,12,37,17.10
2016,09,27,12,38,17.20
2016,09,27,12,39,17.30
2016,09,27,12,40,17.40
2016,09,27,12,41,17.40
2016,09,27,12,42,17.40
2016,09,27,12,43,17.40
2016,09,27,12,44,17.40
2016,09,27,12,45,17.40
2016,09,27,12,46,17.40
2016,09,27,12,47,17.40
2016,09,27,12,48,17.40
2016,09,27,12,49,17.50
2016,09,27,12,50,17.50
2016,09,27,12,51,17.50
2016,09,27,12,52,17.50
2016,09,27,12,53,17.40
2016,09,27,12,54,17.30
2016,09,27,12,55,17.20
2016,09,27,12,56,17.10
2016,09,27,12,57,17.10
2016,09,27,12,58,17.10
2016,09,27,12,59,17.00
2016,09,27,13,00,17.00
2016,09,27,13,01,17.00
2016,09,27,13,02,17.00
2016,09,27,13,03,16.90
2016,09,27,13,04,16.90
2016,09,27,13,05,16.90
2016,09,27,13,06,17.00
2016,09,27,13,07,17.00
2016,09,27,13,08,17.10
2016,09,27,13,09,17.10
2016,09,27,13,10,17.10
2016,09,27,13,11,17.20
2016,09,27,13,12,17.20
2016,09,27,13,13,17.20
2016,09,27,13,14,17.20
2016,09,27,13,15,17.30
2016,09,27,13,16,17.30
2016,09,27,13,17,17.30
2016,09,27,13,18,17.30
2016,09,27,13,19,17.30
2016,09,27,13,20,17.30
2016,09,27,13,21,17.40
2016,09,27,13,22,17.40
2016,09,27,13,23,17.30
2016,09,27,13,24,17.30
2016,09,27,13,25,17.40
2016,09,27,13,26,17.40
2016,09,27,13,27,17.50
2016,09,27,13,28,17.50
2016,09,27,13,29,17.50
2016,09,27,13,30,17.50
2016,09,27,13,31,17.60
2016,09,27,13,32,17.60
2016,09,27,13,33,17.60
2016,09,27,13,34,17.60
2016,09,27,13,35,17.60
2016,09,27,13,36,17.60
2016,09,27,13,37,17.70
2016,09,27,13,38,17.70
2016,09,27,13,39,17.70
2016,09,27,13,40,17.60
2016,09,27,13,41,17.70
2016,09,27,13,42,17.70
2016,09,27,13,43,17.70
2016,09,27,13,44,17.70
2016,09,27,13,45,17.70
2016,09,27,13,46,17.70
2016,09,27,13,47,17.70
2016,09,27,13,48,17.70
2016,09,27,13,49,17.70
2016,09,27,13,50,17.70
2016,09,27,13,51,17.80
2016,09,27,13,52,17.80
2016,09,27,13,53,17.80
2016,09,27,13,54,17.80
2016,09,27,13,55,17.80
2016,09,27,13,56,17.90
2016,09,27,13,57,17.90
2016,09,27,13,58,17.90
2016,09,27,13,59,17.90
2016,09,27,14,00,17.80
2016,09,27,14,01,17.80
2016,09,27,14,02,17.80
2016,09,27,14,03,17.80
2016,09,27,14,04,17.80
2016,09,27,14,05,17.80
2016,09,27,14,06,17.70
2016,09,27,14,07,17.70
2016,09,27,14,08,17.70
2016,09,27,14,09,17.70
2016,09,27,14,10,17.70
2016,09,27,14,11,17.70
2016,09,27,14,12,17.70
2016,09,27,14,13,17.70
2016,09,27,14,14,17.70
2016,09,27,14,15,17.70
2016,09,27,14,16,17.70
2016,09,27,14,17,17.70
2016,09,27,14,18,17.70
2016,09,27,14,19,17.70
2016,09,27,14,20,17.70
2016,09,27,14,21,17.70
2016,09,27,14,22,17.70
2016,09,27,14,23,17.70
2016,09,27,14,24,17.70
2016,09,27,14,25,17.70
2016,09,27,14,26,17.60
2016,09,27,14,27,17.60
2016,09,27,14,28,17.60
2016,09,27,14,29,17.60
2016,09,27,14,30,17.60
2016,09,27,14,31,17.60
2016,09,27,14,32,17.60
2016,09,27,14,33,17.60
2016,09,27,14,34,17.60
2016,09,27,14,35,17.60
2016,09,27,14,36,17.60
2016,09,27,14,37,17.60
2016,09,27,14,38,17.60
2016,09,27,14,39,17.50
2016,09,27,14,40,17.50
2016,09,27,14,41,17.40
2016,09,27,14,42,17.40
2016,09,27,14,43,17.40
2016,09,27,14,44,17.50
2016,09,27,14,45,17.50
2016,09,27,14,46,17.60
2016,09,27,14,47,17.70
2016,09,27,14,48,17.70
2016,09,27,14,49,17.70
2016,09,27,14,50,17.70
2016,09,27,14,51,17.80
2016,09,27,14,52,17.90
2016,09,27,14,53,17.90
2016,09,27,14,54,18.00
2016,09,27,14,55,18.10
2016,09,27,14,56,18.10
2016,09,27,14,57,18.10
2016,09,27,14,58,18.10
2016,09,27,14,59,18.10
2016,09,27,15,00,18.10
2016,09,27,15,01,18.20
2016,09,27,15,02,18.20
2016,09,27,15,03,18.20
2016,09,27,15,04,18.20
2016,09,27,15,05,18.20
2016,09,27,15,06,18.20
2016,09,27,15,07,18.30
2016,09,27,15,08,18.30
2016,09,27,15,09,18.30
2016,09,27,15,10,18.40
2016,09,27,15,11,18.40
2016,09,27,15,12,18.40
2016,09,27,15,13,18.40
2016,09,27,15,14,18.40
2016,09,27,15,15,18.30
2016,09,27,15,16,18.30
2016,09,27,15,17,18.30
2016,09,27,15,18,18.20
2016,09,27,15,19,18.20
2016,09,27,15,20,18.20
2016,09,27,15,21,18.20
2016,09,27,15,22,18.20
2016,09,27,15,23,18.30
2016,09,27,15,24,18.30
2016,09,27,15,25,18.30
2016,09,27,15,26,18.30
2016,09,27,15,27,18.30
2016,09,27,15,28,18.30
2016,09,27,15,29,18.40
2016,09,27,15,30,18.40
2016,09,27,15,31,18.40
2016,09,27,15,32,18.40
2016,09,27,15,33,18.50
2016,09,27,15,34,18.50
2016,09,27,15,35,18.50
2016,09,27,15,36,18.50
2016,09,27,15,37,18.50
2016,09,27,15,38,18.40
2016,09,27,15,39,18.40
2016,09,27,15,40,18.30
2016,09,27,15,41,18.30
2016,09,27,15,42,18.30
2016,09,27,15,43,18.30
2016,09,27,15,44,18.30
2016,09,27,15,45,18.40
2016,09,27,15,46,18.40
2016,09,27,15,47,18.50
2016,09,27,15,48,18.50
2016,09,27,15,49,18.50
2016,09,27,15,50,18.60
2016,09,27,15,51,18.60
2016,09,27,15,52,18.60
2016,09,27,15,53,18.60
2016,09,27,15,54,18.60
2016,09,27,15,55,18.60
2016,09,27,15,56,18.60
2016,09,27,15,57,18.60
2016,09,27,15,58,18.60
2016,09,27,15,59,18.60
2016,09,27,16,00,18.60
2016,09,27,16,01,18.60
2016,09,27,16,02,18.60
2016,09,27,16,03,18.60
2016,09,27,16,04,18.60
2016,09,27,16,05,18.60
2016,09,27,16,06,18.60
2016,09,27,16,07,18.50
2016,09,27,16,08,18.40
2016,09,27,16,09,18.40
2016,09,27,16,10,18.30
2016,09,27,16,11,18.30
2016,09,27,16,12,18.30
2016,09,27,16,13,18.30
2016,09,27,16,14,18.30
2016,09,27,16,15,18.30
2016,09,27,16,16,18.20
2016,09,27,16,17,18.20
2016,09,27,16,18,18.20
2016,09,27,16,19,18.20
2016,09,27,16,20,18.20
2016,09,27,16,21,18.20
2016,09,27,16,22,18.20
2016,09,27,16,23,18.20
2016,09,27,16,24,18.20
2016,09,27,16,25,18.20
2016,09,27,16,26,18.20
2016,09,27,16,27,18.20
2016,09,27,16,28,18.20
2016,09,27,16,29,18.20
2016,09,27,16,30,18.20
2016,09,27,16,31,18.20
2016,09,27,16,32,18.20
2016,09,27,16,33,18.20
2016,09,27,16,34,18.20
2016,09,27,16,35,18.10
2016,09,27,16,36,18.10
2016,09,27,16,37,18.10
2016,09,27,16,38,18.00
2016,09,27,16,39,18.00
2016,09,27,16,40,17.90
2016,09,27,16,41,17.90
2016,09,27,16,42,17.80
2016,09,27,16,43,17.80
2016,09,27,16,44,17.70
2016,09,27,16,45,17.70
2016,09,27,16,46,17.60
2016,09,27,16,47,17.50
2016,09,27,16,48,17.50
2016,09,27,16,49,17.40
2016,09,27,16,50,17.40
2016,09,27,16,51,17.40
2016,09,27,16,52,17.30
2016,09,27,16,53,17.30
2016,09,27,16,54,17.30
2016,09,27,16,55,17.20
2016,09,27,16,56,17.10
2016,09,27,16,57,17.10
2016,09,27,16,58,17.00
2016,09,27,16,59,16.90
2016,09,27,17,00,16.90
2016,09,27,17,01,16.80
2016,09,27,17,02,16.70
2016,09,27,17,03,16.70
2016,09,27,17,04,16.60
2016,09,27,17,05,16.60
2016,09,27,17,06,16.50
2016,09,27,17,07,16.40
2016,09,27,17,08,16.40
2016,09,27,17,09,16.40
2016,09,27,17,10,16.30
2016,09,27,17,11,16.30
2016,09,27,17,12,16.30
2016,09,27,17,13,16.20
2016,09,27,17,14,16.20
2016,09,27,17,15,16.20
2016,09,27,17,16,16.20
2016,09,27,17,17,16.20
2016,09,27,17,18,16.20
2016,09,27,17,19,16.10